Regional Weather Roundup
Issued by NWS

Home | Current Version | Previous Version | Text Only | Print | Product List | Glossary Off
Versions: 1 2 3 4 5 6 7 8 9 10 11 12 13 14 15 16 17 18 19 20 21 22 23 24 25 26 27 28 29 30 31 32 33 34 35 36 37 38 39 40 41 42 43 44 45 46 47 48 49 50

000
ASUS43 KOAX 301910
RWRNE

WEATHER ROUNDUP FOR NEBRASKA
NATIONAL WEATHER SERVICE OMAHA NE
200 PM CDT MON MAY 30 2016

NOTES: SATELLITE DATA IS BEING USED TO AUGMENT CLOUD COVER ABOVE
       12000 FEET.
       "FAIR" INDICATES FEW OR NO CLOUDS BELOW 12,000 FEET WITH NO
       SIGNIFICANT WEATHER AND/OR OBSTRUCTIONS TO VISIBILITY.

  * THESE STATIONS DO NOT REPORT WEATHER SUCH AS RAIN...SNOW OR FOG.

NEZ001>004-019>022-054>056-302000-
NEBRASKA PANHANDLE

CITY           SKY/WX    TMP DP  RH WIND       PRES   REMARKS
SCOTTSBLUFF    SUNNY     79  45  29 W10G22    29.93F
ALLIANCE       SUNNY     79  44  28 W14G22    29.90F
CHADRON        SUNNY     80  45  28 W14       29.87F
KIMBALL        SUNNY     75  45  33 N9        29.98F
SIDNEY         SUNNY     78  54  43 S12       29.95F
$$

NEZ057>060-069>072-079>082-302000-
SOUTHWEST NEBRASKA

CITY           SKY/WX    TMP DP  RH WIND       PRES   REMARKS
NORTH PLATTE   SUNNY     79  56  45 S10       29.91F
IMPERIAL       SUNNY     78  56  46 S14       29.92F
LEXINGTON      SUNNY     78  55  44 S14       29.92F
MCCOOK         SUNNY     80  57  45 S13G21    29.91F
OGALLALA       SUNNY     78  49  36 SW7       29.92F
$$

NEZ005>010-023>029-035>040-094-302000-
NORTH CENTRAL NEBRASKA

CITY           SKY/WX    TMP DP  RH WIND       PRES   REMARKS
VALENTINE      SUNNY     80  52  37 S16G29    29.86F
AINSWORTH      SUNNY     78  55  44 S16G24    29.89F
BROKEN BOW     SUNNY     78  54  43 S17       29.92F
O`NEILL        PTSUNNY   78  60  52 S13       29.91F
ORD            SUNNY     80  59  48 SE13      29.90F
THEDFORD       SUNNY     81  50  33 S14G25    29.91F
$$

NEZ041-046>049-061>064-073>077-083>087-302000-
SOUTH CENTRAL NEBRASKA

CITY           SKY/WX    TMP DP  RH WIND       PRES   REMARKS
GRAND ISLAND   SUNNY     80  59  48 S9        29.94F
AURORA         SUNNY     79  60  52 SW10G17   29.94F
HASTINGS       SUNNY     80  55  42 SW13      29.94F
HEBRON         SUNNY     81  53  38 SW9       29.95F
HOLDREGE       SUNNY     80  51  36 S14G22    29.94F
KEARNEY *      SUNNY     81  54  39 S15G22    29.94F
YORK           SUNNY     81  59  47 S14       29.94F
$$

NEZ011>018-030>034-042>045-302000-
NORTHEAST NEBRASKA

CITY           SKY/WX    TMP DP  RH WIND       PRES   REMARKS
NORFOLK        MOSUNNY   82  56  40 S17G23    29.91F
ALBION         MOSUNNY   79  58  48 S12       29.92F
BLAIR          MOSUNNY   83  60  44 S13       29.94F
FREMONT        CLOUDY    80  61  52 SE9       29.94F
TEKAMAH        CLOUDY    87  55  33 S14       29.92F
WAYNE          CLOUDY    81  59  47 S9        29.92F
$$

NEZ050>053-065>068-078-088>093-302000-
SOUTHEAST NEBRASKA

CITY           SKY/WX    TMP DP  RH WIND       PRES   REMARKS
LINCOLN          N/A     86  64  47 S13       29.93F
OMAHA EPPLEY   PTSUNNY   84  63  49 SE9       29.93F
BEATRICE       CLOUDY    83  63  49 SW13G18   29.95F
FALLS CITY     MOSUNNY   86  67  52 S12       29.95F
NEBRASKA CITY  MOSUNNY   84  59  43 S13       29.95F
PLATTSMOUTH    PTSUNNY   84  64  50 SE8       29.95F
$$

NEZ044-045-051>053-067-302000-
OMAHA AREA

CITY           SKY/WX    TMP DP  RH WIND       PRES   REMARKS
OMAHA EPPLEY   PTSUNNY   84  63  49 SE9       29.93F
BLAIR          MOSUNNY   83  60  44 S13       29.94F
FREMONT        CLOUDY    80  61  52 SE9       29.94F
MILLARD        PTSUNNY   84  58  40 S12       29.93F
OFFUTT AFB     MOSUNNY   85  62  45 S9G16     29.93F
PLATTSMOUTH    PTSUNNY   84  64  50 SE8       29.95F
WAHOO          FAIR      86  58  38 S15G22    29.93F
$$




USA.gov is the U.S. government's official web portal to all federal, state and local government web resources and services.